Location: Peach Mountain Observatory
(42.3967°N, 83.9367°W)
Time: 19:57:44
(UTC-05:00)

Transit 4A - Pass Details

Date: 22 January 2020
Orbit: 872 x 973 km, 66.8° (Epoch: 20 February)

Event Time Altitude Azimuth Distance (km) Brightness Sun altitude
Rises 05:46:25 0° 147° (SSE) 3,557 11.5 -24.2°
Reaches altitude 10° 05:52:05 10° 105° (ESE) 2,589 11.3 -23.2°
Maximum altitude 05:52:33 10° 101° (E) 2,581 11.3 -23.1°
Drops below altitude 10° 05:53:01 10° 96° (E) 2,586 11.4 -23.0°
Sets 05:58:35 0° 54° (NE) 3,505 11.6 -22.0°
